Location: New Frontier Mobile Home Park
(32.8448°N, 116.9675°W)
Time: 23:15:42
(UTC+00:00)

ATLAS 5 CENTAUR R/B - Pass Details

Date: 14 July 2020
Orbit: 534 x 1124 km, 63.4° (Epoch: 30 July)

Event Time Altitude Azimuth Distance (km) Brightness Sun altitude
Rises 10:05:41 0° 342° (NNW) 3,371 5.8 -27.1°
Reaches altitude 10° 10:08:23 10° 354° (N) 2,534 5.3 -26.8°
Maximum altitude 10:13:28 28° 52° (NE) 1,726 4.4 -26.2°
Drops below altitude 10° 10:19:07 10° 109° (ESE) 2,847 5.1 -25.5°
Sets 10:22:19 0° 121° (ESE) 3,864 5.7 -25.1°
